Location: Boullarre
(49.1305°N, 3.0047°E)
Time: 21:49:03
(UTC+00:00)

ISS - Pass Details

Date: 20 September 2024
Orbit: 411 x 423 km, 51.6° (Epoch: 14 October)

Event Time Altitude Azimuth Distance (km) Brightness Sun altitude
Rises 18:34:49 0° 268° (W) 2,362 2.0 -8.2°
Reaches altitude 10° 18:36:56 10° 273° (W) 1,503 0.7 -8.6°
Maximum altitude 18:40:16 57° 353° (N) 504 -3.3 -9.1°
Enters shadow 18:43:29 11° 73° (ENE) 1,461 -1.5 -9.6°
